Location: Brussels
(43.7476°N, 81.2487°W)
Time: 20:48:17
(UTC+00:00)

Daily predictions for brighter satellites

Satellite Brightness Start Highest point End
(mag) Time Altitude Azimuth Time Altitude Azimuth Time Altitude Azimuth
Iridium 4 Rocket 3.6 22:24:11 10° SSE 22:29:33 62° E 22:34:30 10° N
IGS 5A 3.3 22:26:54 10° SSE 22:30:52 81° ENE 22:34:53 10° N
BREEZE-M DEB (TANK) 4.0 22:30:33 10° S 22:32:17 18° SE 22:34:59 10° E
Cosmos 1340 Rocket 2.7 22:29:15 10° S 22:33:06 81° E 22:36:59 10° NNE
Cosmos 2221 Rocket 3.8 22:28:51 10° N 22:33:13 48° ENE 22:37:31 10° SSE
Meteor 2-17 Rocket 4.5 22:28:48 10° N 22:34:57 68° E 22:41:03 10° SSE
ARIANE 6 FM1 Upper Stage 3.5 22:33:49 10° WSW 22:37:40 44° NW 22:41:29 10° NNE
Cosmos 1459 Rocket 4.0 22:31:35 10° S 22:37:49 81° E 22:44:10 10° N
ARIANE 5 R/B 2.6 22:32:58 10° SSE 22:37:49 55° ENE 22:42:41 10° N
SAR-Lupe-1 4.2 22:36:10 10° SSE 22:39:35 49° ENE 22:43:03 10° N
BREEZE-M DEB (TANK) 2.9 22:38:19 10° SSW 22:40:15 34° SE 22:43:36 10° ENE
CZ-2D R/B 3.0 22:39:02 10° SSE 22:42:04 44° ENE 22:45:07 10° N
Cosmos 1864 Rocket 4.5 22:37:45 10° S 22:43:48 67° E 22:49:56 10° NNE
Geosat FO 4.0 22:42:55 10° SE 22:45:49 65° ENE 22:48:43 10° NNW
SPOT 1/Viking Rocket 4.4 22:41:52 10° ESE 22:46:09 28° ENE 22:50:29 10° N
UNK 3.8 22:42:00 10° NNE 22:46:38 87° WNW 22:51:14 10° SSW
Cosmos 1674 Rocket 3.8 22:44:13 10° NNW 22:48:36 75° W 22:52:55 10° S
ATLAS CENTAUR R/B 0.8 22:47:14 10° SSW 22:50:41 80° ESE 22:54:10 10° NE
Cosmos 921 Rocket 3.1 22:46:41 10° S 22:50:53 58° ESE 22:55:11 10° NNE
SL-4 R/B 2.2 22:47:52 10° NW 22:51:07 39° NNE 22:54:11 12° E
Cosmos 1441 Rocket 3.3 22:48:35 10° N 22:51:43 36° ENE 22:54:50 10° SE
Cosmos 1725 Rocket 4.0 22:48:52 10° S 22:55:05 75° E 23:01:22 10° NNE
SAR-Lupe-4 3.6 22:52:41 10° SSE 22:56:15 84° WSW 22:59:52 10° NNW
AQUARIUS 4.1 22:53:10 10° SSE 22:57:29 58° ENE 23:01:49 10° N
Cosmos 1025 Rocket 3.1 22:54:03 10° N 22:58:24 82° W 23:02:41 10° S
Cosmos 2082 Rocket 4.0 22:57:03 10° NNE 22:58:24 11° NE 22:59:36 10° NE
IRS-P3 4.1 22:55:01 10° SSE 23:00:15 63° ENE 23:05:32 10° N
Cosmos 2278 Rocket 3.7 22:59:33 10° SE 23:02:27 14° E 23:03:25 14° E
Cosmos 2233 Rocket 4.1 22:56:41 10° S 23:02:47 59° E 23:08:58 10° NNE
Tiangong -1.3 23:01:25 10° W 23:04:29 46° S 23:07:10 13° ESE
NOSS 3-4 (A) 3.9 22:57:34 10° NW 23:04:30 86° NE 23:12:38 10° SE
NOSS 3-4 (C) 3.9 22:57:38 10° NW 23:04:34 85° NE 23:12:42 10° SE
DNEPR-1 R/B 4.3 23:01:17 10° NNW 23:05:25 37° NE 23:10:07 10° ESE
YAOGAN 1 3.5 23:02:11 10° ESE 23:05:43 26° ENE 23:09:15 10° NNE
Cosmos 1802 Rocket 4.2 23:01:53 10° S 23:08:17 80° W 23:14:45 10° N
MOS 1 Rocket 3.2 23:04:26 10° SSE 23:08:32 51° ENE 23:12:44 10° N
USA 281 4.3 23:08:24 15° E 23:12:00 23° NE 23:16:54 10° N
COSMO-SKYMED 1 3.2 23:09:02 10° NE 23:12:42 30° E 23:16:21 10° SSE
SMAP 3.9 23:09:17 10° S 23:13:51 56° W 23:18:26 10° NNW
SL-16 R/B 4.1 23:09:21 10° N 23:14:57 35° WNW 23:20:31 10° SW
SL-08 R/B 4.4 23:10:50 10° S 23:16:59 88° E 23:23:06 10° N
Cosmos 1992 Rocket 4.5 23:14:18 10° NNW 23:19:27 63° WSW 23:24:33 10° S
Spot 4 Rocket 4.2 23:14:43 10° SE 23:19:34 46° ENE 23:24:26 10° N
Cosmos 407 Rocket 4.5 23:15:26 10° SSE 23:19:37 25° E 23:21:24 21° ENE
Cosmos 2084 Rocket 3.6 23:17:39 10° SSW 23:21:39 48° ESE 23:23:55 23° ENE
Cosmos 1943 Rocket 3.2 23:21:16 10° SSE 23:25:38 24° ESE 23:26:39 23° E
Tsikada Rocket 4.0 23:20:42 10° N 23:27:10 85° E 23:33:33 10° S
Landsat 7 4.5 23:23:31 10° S 23:28:05 57° W 23:32:41 10° NNW
Helios 1A Rocket 2.5 23:29:18 22° NNE 23:31:15 52° ESE 23:34:33 10° S
Cosmos 1782 Rocket 3.6 23:27:48 10° S 23:32:14 82° W 23:36:42 10° N
SL-12 R/B(2) 4.4 23:28:58 10° S 23:36:19 49° ESE 23:43:34 15° NE
CZ-4C R/B 3.4 23:33:12 10° W 23:37:05 29° NW 23:41:51 10° NNE
Meteor 2-12 Rocket 4.4 23:33:28 10° N 23:39:31 59° ENE 23:45:29 10° SSE
Cosmos 1269 Rocket 3.9 23:35:50 10° SSW 23:41:05 87° ESE 23:46:23 10° NNE
NOAA 6 4.2 23:36:36 10° SE 23:41:30 47° ENE 23:46:26 10° N
Cosmos 1300 Rocket 4.5 23:43:48 10° SSW 23:48:04 49° WNW 23:52:21 10° N
TIMED 4.4 23:43:59 10° S 23:48:11 62° ESE 23:49:38 38° NE
SKYMED 2 3.7 23:44:49 10° N 23:49:10 74° WNW 23:53:30 10° SSW
Cosmos 1869 2.9 23:45:56 10° S 23:49:27 63° E 23:49:30 62° E
PSLV R/B 3.2 23:46:40 10° SSE 23:50:44 77° ENE 23:54:47 10° N
Cosmos 1833 Rocket 2.6 23:46:30 10° NNW 23:52:11 88° ENE 23:57:50 10° SSE
Cosmos 1975 Rocket 3.1 23:50:06 10° N 23:54:25 78° W 23:58:45 10° S
